Tracking 29892 objects as of 21-Nov-2024
HD Live streaming from Space Station
objects crossing your sky now

CZ-6A DEB

Track CZ-6A DEB now!
10-day predictions


NORAD ID: 56676
Int'l Code: 2022-151AHC
Perigee: 835.5 km
Apogee: 901.1 km
Inclination: 98.8 °
Period: 102.2 minutes
Semi major axis: 7239 km
RCS: Unknown
Launch date: November 11, 2022
Source: People's Republic of China (PRC)
Launch site: Taiyaun Space Center, China (TSC)

Note: This is SATELLITE DEBRIS
Your satellite tracking list
Your tracking list is empty




NASA's NSSDC Master Catalog

Two Line Element Set (TLE):
1 56676U 22151AHC 24324.95051402  .00000400  00000-0  25114-3 0  9992
2 56676  98.8449 326.2575 0045280 158.5992 201.7085 14.09470200 80921
Source of the keplerian elements: AFSPC